EN

Hourly Weather London

Today, 9 May, Sunday

Time Temperature Precipitation Wind Pressure Humidity
00:00 +11°C° 0 mm 6 mps 749 mmHg 79%
01:00 +11°C° 0 mm 6 mps 748 mmHg 81%
02:00 +12°C° 0 mm 5 mps 748 mmHg 83%
03:00 +10°C° 0 mm 5 mps 748 mmHg 85%
04:00 +12°C° 0 mm 5 mps 747 mmHg 84%
05:00 +12°C° 0 mm 5 mps 747 mmHg 83%
06:00 +13°C° 0 mm 4 mps 747 mmHg 82%
07:00 +14°C° 0 mm 5 mps 747 mmHg 78%
08:00 +16°C° 0 mm 5 mps 747 mmHg 75%
09:00 +17°C° 0 mm 6 mps 746 mmHg 71%
10:00 +17°C° 0 mm 6 mps 746 mmHg 70%
11:00 +19°C° 0 mm 6 mps 746 mmHg 69%
12:00 +19°C° 0 mm 6 mps 746 mmHg 68%
13:00 +19°C° 0 mm 6 mps 746 mmHg 68%
14:00 +19°C° 0 mm 6 mps 746 mmHg 68%
15:00 +19°C° 0 mm 6 mps 746 mmHg 67%
16:00 +17°C° 0.1 mm 5 mps 746 mmHg 71%
17:00 +18°C° 0.1 mm 4 mps 746 mmHg 75%
18:00 +17°C° 0.1 mm 3 mps 745 mmHg 78%
19:00 +16°C° 0.1 mm 2 mps 745 mmHg 83%
20:00 +15°C° 0.1 mm 2 mps 745 mmHg 88%
21:00 +14°C° 0.1 mm 1 mps 745 mmHg 93%
22:00 +13°C° 0.2 mm 2 mps 745 mmHg 93%
23:00 +12°C° 0.2 mm 3 mps 745 mmHg 93%

Tomorrow, 10 May, Monday

Time Temperature Precipitation Wind Pressure Humidity
00:00 +11°C° 0.2 mm 4 mps 746 mmHg 93%
01:00 +11°C° 0 mm 4 mps 746 mmHg 92%
02:00 +10°C° 0 mm 4 mps 746 mmHg 92%
03:00 +10°C° 0 mm 4 mps 746 mmHg 92%
04:00 +9°C° 0 mm 5 mps 746 mmHg 90%
05:00 +9°C° 0 mm 6 mps 747 mmHg 88%
06:00 +9°C° 0 mm 6 mps 747 mmHg 87%
07:00 +10°C° 0 mm 7 mps 747 mmHg 84%
08:00 +10°C° 0 mm 7 mps 748 mmHg 81%
09:00 +11°C° 0 mm 7 mps 748 mmHg 78%
10:00 +12°C° 0.2 mm 8 mps 749 mmHg 73%
11:00 +13°C° 0.2 mm 8 mps 749 mmHg 67%
12:00 +15°C° 0.2 mm 9 mps 749 mmHg 62%
13:00 +15°C° 0 mm 9 mps 750 mmHg 60%
14:00 +15°C° 0 mm 9 mps 750 mmHg 57%
15:00 +15°C° 0 mm 8 mps 750 mmHg 55%
16:00 +14°C° 0 mm 7 mps 751 mmHg 59%
17:00 +14°C° 0 mm 7 mps 751 mmHg 62%
18:00 +13°C° 0 mm 6 mps 751 mmHg 66%
19:00 +10°C° 0 mm 5 mps 752 mmHg 71%
20:00 +10°C° 0 mm 4 mps 752 mmHg 77%
21:00 +9°C° 0 mm 3 mps 753 mmHg 82%
22:00 +8°C° 0 mm 3 mps 753 mmHg 84%
23:00 +8°C° 0 mm 2 mps 753 mmHg 86%

Day after tomorrow, 11 May, Tuesday

Time Temperature Precipitation Wind Pressure Humidity
00:00 +7°C° 0 mm 2 mps 753 mmHg 88%
01:00 +7°C° 0 mm 2 mps 753 mmHg 88%
02:00 +7°C° 0 mm 2 mps 753 mmHg 88%
03:00 +7°C° 0 mm 2 mps 753 mmHg 88%
04:00 +7°C° 0 mm 2 mps 753 mmHg 87%
05:00 +8°C° 0 mm 2 mps 753 mmHg 86%
06:00 +9°C° 0 mm 3 mps 754 mmHg 84%
07:00 +11°C° 0 mm 3 mps 754 mmHg 78%
08:00 +12°C° 0 mm 4 mps 754 mmHg 71%
09:00 +14°C° 0 mm 5 mps 754 mmHg 65%
10:00 +14°C° 0.1 mm 5 mps 753 mmHg 63%
11:00 +14°C° 0.1 mm 6 mps 753 mmHg 60%
12:00 +15°C° 0.1 mm 6 mps 753 mmHg 58%
13:00 +15°C° 0 mm 6 mps 753 mmHg 58%
14:00 +14°C° 0 mm 7 mps 753 mmHg 57%
15:00 +14°C° 0 mm 7 mps 753 mmHg 57%
16:00 +14°C° 0 mm 6 mps 754 mmHg 61%
17:00 +13°C° 0 mm 6 mps 754 mmHg 66%
18:00 +13°C° 0 mm 5 mps 754 mmHg 70%
19:00 +12°C° 0 mm 5 mps 754 mmHg 75%
20:00 +10°C° 0 mm 5 mps 754 mmHg 80%
21:00 +9°C° 0 mm 5 mps 754 mmHg 84%
22:00 +9°C° 0 mm 5 mps 754 mmHg 86%
23:00 +9°C° 0 mm 5 mps 754 mmHg 87%

12 May, Wednesday

Time Temperature Precipitation Wind Pressure Humidity
00:00 +10°C° 0 mm 4 mps 754 mmHg 89%
01:00 +10°C° 0 mm 4 mps 754 mmHg 88%
02:00 +10°C° 0 mm 4 mps 754 mmHg 88%
03:00 +10°C° 0 mm 4 mps 754 mmHg 87%
04:00 +10°C° 0 mm 4 mps 754 mmHg 85%
05:00 +10°C° 0 mm 4 mps 755 mmHg 84%
06:00 +10°C° 0 mm 4 mps 755 mmHg 82%
07:00 +11°C° 0 mm 4 mps 755 mmHg 79%
08:00 +11°C° 0 mm 4 mps 755 mmHg 76%
09:00 +12°C° 0 mm 5 mps 755 mmHg 73%
10:00 +12°C° 0.2 mm 5 mps 755 mmHg 72%
11:00 +13°C° 0.2 mm 5 mps 755 mmHg 72%
12:00 +13°C° 0.2 mm 5 mps 755 mmHg 71%
13:00 +13°C° 0.1 mm 4 mps 755 mmHg 67%
14:00 +14°C° 0.1 mm 4 mps 754 mmHg 63%
15:00 +14°C° 0.1 mm 4 mps 754 mmHg 58%
16:00 +14°C° 0 mm 4 mps 754 mmHg 61%
17:00 +13°C° 0 mm 4 mps 755 mmHg 64%
18:00 +13°C° 0 mm 4 mps 755 mmHg 67%
19:00 +11°C° 0 mm 3 mps 755 mmHg 74%
20:00 +10°C° 0 mm 3 mps 755 mmHg 81%
21:00 +8°C° 0 mm 3 mps 755 mmHg 88%
22:00 +8°C° 0 mm 3 mps 755 mmHg 90%
23:00 +8°C° 0 mm 3 mps 755 mmHg 91%

13 May, Thursday

Time Temperature Precipitation Wind Pressure Humidity
00:00 +8°C° 0 mm 3 mps 755 mmHg 93%
01:00 +8°C° 0 mm 2 mps 755 mmHg 93%
02:00 +8°C° 0 mm 2 mps 755 mmHg 94%
03:00 +8°C° 0 mm 2 mps 754 mmHg 94%
04:00 +8°C° 0 mm 2 mps 755 mmHg 92%
05:00 +8°C° 0 mm 2 mps 755 mmHg 91%
06:00 +9°C° 0 mm 2 mps 755 mmHg 89%
07:00 +10°C° 0 mm 2 mps 755 mmHg 83%
08:00 +12°C° 0 mm 2 mps 755 mmHg 78%
09:00 +13°C° 0 mm 2 mps 755 mmHg 73%
10:00 +14°C° 0.5 mm 2 mps 755 mmHg 71%
11:00 +15°C° 0.5 mm 2 mps 755 mmHg 70%
12:00 +15°C° 0.5 mm 2 mps 755 mmHg 68%
13:00 +15°C° 0.5 mm 2 mps 755 mmHg 67%
14:00 +16°C° 0.5 mm 2 mps 755 mmHg 66%
15:00 +16°C° 0.5 mm 2 mps 755 mmHg 66%
16:00 +15°C° 0.5 mm 2 mps 755 mmHg 70%
17:00 +15°C° 0.5 mm 2 mps 755 mmHg 75%
18:00 +14°C° 0.5 mm 2 mps 755 mmHg 80%
19:00 +13°C° 0.2 mm 2 mps 755 mmHg 83%
20:00 +10°C° 0.2 mm 2 mps 756 mmHg 87%
21:00 +10°C° 0.2 mm 1 mps 756 mmHg 91%
22:00 +10°C° 0 mm 1 mps 756 mmHg 91%
23:00 +9°C° 0 mm 1 mps 756 mmHg 92%

14 May, Friday

Time Temperature Precipitation Wind Pressure Humidity
00:00 +9°C° 0 mm 1 mps 756 mmHg 92%
01:00 +8°C° 0 mm 1 mps 756 mmHg 92%
02:00 +8°C° 0 mm 1 mps 757 mmHg 92%
03:00 +7°C° 0 mm 0 mps 757 mmHg 93%
04:00 +7°C° 0 mm 0 mps 757 mmHg 92%
05:00 +8°C° 0 mm 0 mps 757 mmHg 91%
06:00 +9°C° 0 mm 0 mps 758 mmHg 90%
07:00 +11°C° 0.1 mm 1 mps 758 mmHg 85%
08:00 +12°C° 0.1 mm 2 mps 758 mmHg 81%
09:00 +14°C° 0.1 mm 2 mps 759 mmHg 76%
10:00 +13°C° 0.6 mm 3 mps 759 mmHg 77%
11:00 +13°C° 0.6 mm 3 mps 759 mmHg 79%
12:00 +13°C° 0.6 mm 4 mps 760 mmHg 80%
13:00 +12°C° 0.5 mm 4 mps 760 mmHg 82%
14:00 +12°C° 0.5 mm 4 mps 760 mmHg 83%
15:00 +12°C° 0.5 mm 4 mps 761 mmHg 84%
16:00 +11°C° 0.1 mm 4 mps 761 mmHg 85%
17:00 +11°C° 0.1 mm 4 mps 762 mmHg 87%
18:00 +10°C° 0.1 mm 3 mps 762 mmHg 88%
19:00 +10°C° 0 mm 3 mps 763 mmHg 88%
20:00 +9°C° 0 mm 3 mps 763 mmHg 87%
21:00 +8°C° 0 mm 3 mps 764 mmHg 87%
22:00 +8°C° 0 mm 3 mps 764 mmHg 85%
23:00 +8°C° 0 mm 3 mps 764 mmHg 84%
Show more